G4MDP-13 Weather Reports


time (UTC)temp
C
wind
direction
speed
KPH
gust
KPH
rain 1hr
cm
rain 24hr
cm
rain mn
cm
humidity
%
barometer
mb
20260505180421 15 155 6.4 8.0 0.00 0.00 0.00 55 1004.8
20260505180418 15 155 6.4 8.0 0.00 0.00 0.00 55 1004.8
20260505174918 15 157 6.4 9.7 0.00 0.00 0.00 61 1004.8
20260505173517 16 159 6.4 8.0 0.00 0.00 0.00 62 1004.8
20260505173420 16 158 6.4 8.0 0.00 0.00 0.00 62 1004.9
20260505173418 16 158 6.4 8.0 0.00 0.00 0.00 62 1004.9
20260505171918 15 158 6.4 8.0 0.00 0.00 0.00 58 1005.0
20260505170517 15 161 6.4 9.7 0.00 0.00 0.00 59 1005.0
20260505170420 15 161 6.4 9.7 0.00 0.00 0.00 59 1005.0
20260505170418 15 161 6.4 9.7 0.00 0.00 0.00 59 1005.0
20260505164918 16 157 6.4 16.1 0.00 0.00 0.00 63 1005.1
20260505163517 16 157 6.4 9.7 0.00 0.00 0.00 44 1004.9
20260505163418 16 158 6.4 9.7 0.00 0.00 0.00 45 1004.8
20260505161918 16 159 4.8 9.7 0.00 0.00 0.00 54 1004.8
20260505160517 16 161 6.4 8.0 0.00 0.00 0.00 56 1004.9
20260505160420 16 161 6.4 8.0 0.00 0.00 0.00 55 1004.9
20260505160418 16 161 6.4 8.0 0.00 0.00 0.00 55 1004.9
20260505151918 17 158 6.4 12.9 0.00 0.00 0.00 55 1004.8
20260505150517 17 154 4.8 9.7 0.00 0.00 0.00 42 1005.0
20260505150420 17 153 4.8 9.7 0.00 0.00 0.00 42 1005.0
20260505150418 17 153 4.8 9.7 0.00 0.00 0.00 42 1005.0
20260505140518 17 165 6.4 9.7 0.00 0.00 0.00 40 1005.0
20260505140420 17 163 6.4 9.7 0.00 0.00 0.00 41 1005.1
20260505140418 17 163 6.4 9.7 0.00 0.00 0.00 41 1005.1
20260505124918 17 147 4.8 9.7 0.00 0.00 0.00 48 1005.3
20260505123517 17 155 4.8 8.0 0.00 0.00 0.00 47 1005.3
20260505123421 18 153 4.8 8.0 0.00 0.00 0.00 47 1005.2
20260505123418 18 153 4.8 8.0 0.00 0.00 0.00 47 1005.2
20260505121918 17 160 4.8 8.0 0.00 0.00 0.00 49 1005.4
20260505120517 18 169 4.8 8.0 0.00 0.00 0.00 47 1005.6
20260505120420 18 166 4.8 8.0 0.00 0.00 0.00 47 1005.6
20260505120418 18 166 4.8 8.0 0.00 0.00 0.00 47 1005.6
20260505114918 16 152 4.8 11.3 0.00 0.00 0.00 52 1005.8
20260505113517 16 159 4.8 9.7 0.00 0.00 0.00 54 1005.6
20260505113420 16 159 4.8 9.7 0.00 0.00 0.00 54 1005.6
20260505113418 16 159 4.8 9.7 0.00 0.00 0.00 54 1005.6
20260505111918 15 135 4.8 8.0 0.00 0.00 0.00 58 1005.8
20260505110517 15 116 4.8 9.7 0.00 0.00 0.00 58 1005.9
20260505110418 15 113 4.8 9.7 0.00 0.00 0.00 58 1006.0
20260505101918 15 162 4.8 8.0 0.00 0.00 0.00 61 1005.8
20260505101118 15 151 4.8 9.7 0.00 0.00 0.00 61 1005.6
20260505100718 15 147 4.8 9.7 0.00 0.00 0.00 59 1005.7
20260505100518 16 139 4.8 9.7 0.00 0.00 0.00 58 1005.9
20260505100353 16 138 4.8 9.7 0.00 0.00 0.00 58 1005.7
20260505100350 16 138 4.8 9.7 0.00 0.00 0.00 58 1005.7
20260505094851 15 128 4.8 9.7 0.00 0.00 0.00 59 1005.9
20260505093450 15 140 4.8 9.7 0.00 0.00 0.00 58 1005.9
20260505093353 15 138 4.8 9.7 0.00 0.00 0.00 58 1005.8
20260505093351 15 138 4.8 9.7 0.00 0.00 0.00 58 1005.8
20260505091851 15 148 4.8 12.9 0.00 0.00 0.00 57 1006.0
20260505090450 15 130 4.8 8.0 0.00 0.00 0.00 56 1006.2
20260505090351 15 131 4.8 9.7 0.00 0.00 0.00 57 1006.3
20260505084850 15 120 3.2 11.3 0.00 0.00 0.00 58 1006.1
20260505083450 14 126 4.8 11.3 0.00 0.00 0.00 63 1006.0
20260505083350 14 123 4.8 11.3 0.00 0.00 0.00 62 1006.0
20260505081850 13 126 4.8 9.7 0.00 0.00 0.00 68 1006.1
20260505080450 13 110 4.8 9.7 0.00 0.00 0.00 69 1006.3
20260505080350 13 105 4.8 9.7 0.00 0.00 0.00 68 1006.2
20260505074850 14 133 4.8 9.7 0.00 0.00 0.00 71 1006.0
20260505073450 13 142 4.8 12.9 0.00 0.00 0.00 75 1006.3
20260505073350 13 142 4.8 12.9 0.00 0.00 0.00 74 1006.4
20260505071850 12 124 4.8 9.7 0.00 0.00 0.00 79 1006.2
20260505070450 12 132 6.4 9.7 0.00 0.00 0.00 81 1006.4
20260505070350 12 136 6.4 9.7 0.00 0.00 0.00 81 1006.4
20260505064850 12 149 6.4 9.7 0.00 0.00 0.00 82 1006.4
20260505063450 12 129 6.4 8.0 0.00 0.00 0.00 83 1006.5
20260505063350 12 129 4.8 8.0 0.00 0.00 0.00 82 1006.7
20260505061850 12 153 6.4 9.7 0.00 0.00 0.00 83 1006.7
20260505060450 11 132 4.8 9.7 0.00 0.00 0.00 85 1012.7
20260505060350 11 134 4.8 9.7 0.00 0.00 0.00 85 1012.7
20260505054850 11 152 6.4 9.7 0.00 0.00 0.00 85 1006.6
20260505053450 11 145 6.4 8.0 0.00 0.00 0.00 85 1012.6
20260505053350 11 145 6.4 8.0 0.00 0.00 0.00 85 1006.5
20260505051850 11 141 6.4 12.9 0.00 0.00 0.00 86 1012.6
20260505050450 11 150 6.4 9.7 0.00 0.00 0.00 87 1012.7
20260505050350 11 150 6.4 9.7 0.00 0.00 0.00 87 1012.7
20260505040450 11 143 6.4 8.0 0.00 0.00 0.00 88 1006.4
20260505040350 11 141 6.4 8.0 0.00 0.00 0.00 88 1006.4
20260505034850 11 145 6.4 8.0 0.00 0.00 0.00 89 1007.0
20260505033450 11 148 6.4 8.0 0.00 0.00 0.00 89 1013.1
20260505033350 11 148 6.4 8.0 0.00 0.00 0.00 89 1013.1
20260505031851 11 148 6.4 8.0 0.00 0.00 0.00 89 1007.3
20260505030450 11 152 6.4 8.0 0.00 0.00 0.00 89 1007.1
20260505030350 11 151 6.4 8.0 0.00 0.00 0.00 89 1007.1
20260505024850 11 151 6.4 8.0 0.00 0.00 0.00 88 1006.9
20260505023450 11 152 6.4 9.7 0.00 0.00 0.00 89 1007.0
20260505023350 11 153 6.4 9.7 0.00 0.00 0.00 89 1007.0
20260505021850 11 154 6.4 9.7 0.00 0.00 0.00 88 1007.2
20260505020450 12 156 6.4 9.7 0.00 0.00 0.00 88 1007.2
20260505020350 12 156 6.4 9.7 0.00 0.00 0.00 88 1007.2
20260505014850 12 155 6.4 8.0 0.00 0.00 0.00 88 1007.1
20260505013450 12 157 6.4 9.7 0.00 0.00 0.00 88 1007.4
20260505013350 12 157 6.4 9.7 0.00 0.00 0.00 88 1007.4
20260505011850 12 155 6.4 8.0 0.00 0.00 0.00 89 1007.6
20260505010450 12 155 6.4 11.3 0.00 0.00 0.00 88 1007.2
20260505010350 12 155 6.4 11.3 0.00 0.00 0.00 88 1007.2
20260505004851 12 153 6.4 9.7 0.00 0.00 0.00 87 1007.5
20260505003450 12 153 8.0 9.7 0.00 0.00 0.00 87 1008.0
20260505003350 12 153 8.0 9.7 0.00 0.00 0.00 87 1014.2
20260505001850 12 153 6.4 9.7 0.00 0.00 0.00 86 1007.9
20260505000450 12 153 6.4 8.0 0.00 0.00 0.00 86 1008.1
20260505000351 12 153 6.4 8.0 0.00 0.00 0.00 86 1008.1
20260504234850 12 153 6.4 9.7 0.00 0.00 0.00 86 1007.8
20260504233450 12 150 6.4 8.0 0.00 0.00 0.00 86 1007.7
20260504233350 12 152 6.4 8.0 0.00 0.00 0.00 86 1007.9
20260504231850 12 155 6.4 9.7 0.00 0.00 0.00 86 1007.8
20260504230450 12 154 6.4 9.7 0.00 0.00 0.00 87 1007.6
20260504230350 12 153 6.4 9.7 0.00 0.00 0.00 87 1007.8
20260504224850 12 154 6.4 8.0 0.00 0.00 0.00 87 1007.9
20260504223450 12 151 6.4 9.7 0.00 0.00 0.00 88 1014.0
20260504223350 12 150 6.4 9.7 0.00 0.00 0.00 88 1014.0
20260504221850 12 152 6.4 9.7 0.00 0.00 0.00 90 1014.4
20260504220450 12 150 6.4 8.0 0.00 0.00 0.00 92 1014.3
20260504220350 12 148 6.4 8.0 0.00 0.00 0.00 92 1014.3
20260504214850 12 152 6.4 8.0 0.00 0.00 0.00 93 1008.2
20260504213450 12 155 6.4 8.0 0.00 0.00 0.00 93 1014.4
20260504213351 12 156 6.4 8.0 0.00 0.00 0.00 93 1014.3
20260504211850 11 155 6.4 8.0 0.00 0.00 0.00 93 1014.3
20260504210450 11 155 6.4 8.0 0.00 0.00 0.00 92 1014.0
20260504210350 11 155 6.4 8.0 0.00 0.00 0.00 92 1008.0
20260504204850 11 154 6.4 8.0 0.00 0.00 0.00 92 1008.1
20260504203450 11 156 6.4 8.0 0.00 0.00 0.00 91 1008.3
20260504203351 11 155 6.4 8.0 0.00 0.00 0.00 91 1008.3
20260504201850 12 155 6.4 8.0 0.00 0.00 0.00 90 1008.0
20260504200450 12 156 6.4 8.0 0.00 0.00 0.00 90 1007.9
20260504200350 12 156 6.4 8.0 0.00 0.00 0.00 90 1007.9
20260504194850 12 157 6.4 8.0 0.00 0.00 0.00 89 1007.9
20260504193450 12 158 6.4 8.0 0.00 0.00 0.00 89 1007.8
20260504193351 12 157 6.4 8.0 0.00 0.00 0.00 89 1007.7
20260504191850 12 158 6.4 9.7 0.00 0.00 0.00 86 1007.6
20260504190450 13 159 6.4 8.0 0.00 0.00 0.00 85 1007.5
20260504190350 13 159 6.4 8.0 0.00 0.00 0.00 85 1007.6
20260504184850 13 159 6.4 9.7 0.00 0.00 0.00 83 1007.5
20260504183450 13 159 8.0 9.7 0.00 0.00 0.00 83 1007.4
20260504183350 13 159 8.0 9.7 0.00 0.00 0.00 83 1007.4
20260504181850 14 159 6.4 9.7 0.00 0.00 0.00 82 1007.5